Location: Escondida
(34.1015°N, 106.8964°W)
Time: 15:26:01
(UTC+00:00)

Cosmos 1626 Rocket - Pass Details

Date: 11 December 2025
Orbit: 596 x 625 km, 82.5° (Epoch: 15 January)

Event Time Altitude Azimuth Distance (km) Brightness Sun altitude
Rises 12:28:06 0° 174° (S) 2,890 7.3 -19.2°
Reaches altitude 10° 12:30:22 10° 170° (S) 1,986 6.5 -18.7°
Maximum altitude 12:34:39 53° 94° (E) 765 4.4 -17.9°
Drops below altitude 10° 12:38:56 10° 17° (NNE) 1,989 6.2 -17.0°
Sets 12:41:12 0° 13° (NNE) 2,895 7.0 -16.6°
